📊 Raw Sensor Data

Showing records 42926 to 42950 of 85,008 total

ID Distance (ft) Battery V Battery A Int Temp (°F) Int Humid (%) Ext Temp (°F) Solar V RSSI SNR Time Stamp
42095 15.4 3.97 5 107 44 98 5.20 -72 7 05/30/2025 03:30 PM
42094 15.4 3.96 5 107 43 97 5.20 -72 7 05/30/2025 03:15 PM
42093 15.4 3.96 0 106 43 97 5.10 -72 8 05/30/2025 03:00 PM
42092 15.4 3.96 5 105 42 97 5.10 -71 8 05/30/2025 02:45 PM
42091 15.4 3.96 5 105 42 96 5.10 -76 8 05/30/2025 02:30 PM
42090 15.3 3.96 5 102 43 95 5.10 -72 8 05/30/2025 02:15 PM
42089 15.4 3.99 0 102 42 93 5.10 -72 8 05/30/2025 02:00 PM
42088 15.4 4.02 6 101 42 94 5.10 -73 8 05/30/2025 01:45 PM
42087 15.4 3.96 6 100 42 92 5.10 -71 8 05/30/2025 01:30 PM
42086 15.4 3.96 0 99 43 93 5.10 -72 8 05/30/2025 01:15 PM
42085 15.4 3.96 6 97 43 91 5.10 -71 8 05/30/2025 01:00 PM
42084 15.4 3.96 6 97 43 92 5.10 -72 8 05/30/2025 12:45 PM
42083 15.4 3.96 6 96 43 93 5.10 -72 8 05/30/2025 12:30 PM
42082 15.4 3.99 6 94 43 90 5.10 -73 8 05/30/2025 12:15 PM
42081 15.5 4.04 6 93 43 93 5.10 -72 8 05/30/2025 12:00 PM
42080 15.5 3.96 0 92 42 95 5.10 -73 8 05/30/2025 11:45 AM
42079 15.5 3.96 6 88 43 91 5.10 -72 7 05/30/2025 11:15 AM
42078 15.5 3.97 6 87 42 91 5.10 -74 8 05/30/2025 11:00 AM
42077 15.5 3.96 0 86 42 90 5.10 -73 8 05/30/2025 10:45 AM
42076 15.6 3.96 6 84 42 88 5.10 -74 8 05/30/2025 10:30 AM
42075 15.6 3.96 0 83 42 82 5.10 -73 8 05/30/2025 10:15 AM
42074 15.6 3.96 6 81 43 81 5.10 -74 8 05/30/2025 10:00 AM
42073 15.6 3.96 6 80 43 83 5.10 -74 8 05/30/2025 09:45 AM
42072 15.6 3.96 0 79 43 83 5.10 -74 8 05/30/2025 09:30 AM
42071 15.6 3.98 0 77 44 79 5.10 -74 8 05/30/2025 09:15 AM